Flag for U.S.A. Weather past 2 weeks in Boston, Massachusetts, U.S.A.

Now
35 °F

Partly sunny.


Feels Like: 30 °F
Forecast: 33 / 41 °F
Wind: 6 mph from North

Location: Logan International Airport

Current Time: Dec 22, 2014 at 9:39:24 AM

Latest Report: Dec 22, 2014 at 8:54 AM


Visibility: 10 mi

Pressure: 30.39 "Hg

Humidity: 78%

Dew point: 29 °F

Location of BostonLocation

Historic Weather in Boston — Graph

°F

Boston temperature yesterday

Maximum temperature yesterday: 35 °F (at 12:54 AM)
Minimum temperature yesterday: 30 °F (at 7:54 AM)
Average temperature yesterday: 33 °F

Past Weeks' High & Low Weather Summary

 TemperatureHumidityPressure
High49 °F (Dec 9, 6:54 PM)100% (Dec 9, 9:54 PM)30.76 "Hg (Dec 9, 9:54 PM)
Low18 °F (Dec 8, 5:54 AM)28% (Dec 7, 7:54 PM)29.43 "Hg (Dec 10, 9:54 PM)
Average36 °F76%30.00 "Hg
* Reported Dec 7 7:54 AM — Dec 22 7:54 AM, Boston, Weather by CustomWeather, © 2014

Note: Actual official high and low records may vary slightly from our data, if they occured in-between our weather recording intervals... More about our weather records

Advertising

Boston weather history for previous 24 hours

 ConditionsComfort  
Time TempWeatherWind HumidityBarometerVisibility
7:54 AM
Dec 22
34 °FBroken clouds.No wind79%30.39 "Hg10 mi
6:54 AM33 °FPartly cloudy.5 mph78%30.38 "Hg10 mi
6:01 AM34 °FPassing clouds.6 mph75%30.38 "Hg10 mi
4:54 AM33 °FOvercast.6 mph78%30.36 "Hg10 mi
3:54 AM33 °FMostly cloudy.7 mph75%30.35 "Hg10 mi
2:54 AM33 °FOvercast.7 mph75%30.36 "Hg10 mi
1:54 AM33 °FOvercast.8 mph75%30.37 "Hg10 mi
12:54 AM33 °FOvercast.7 mph72%30.35 "Hg10 mi
11:54 PM
Dec 21
34 °FOvercast.6 mph73%30.37 "Hg10 mi
10:54 PM34 °FOvercast.6 mph70%30.37 "Hg10 mi
9:54 PM34 °FOvercast.6 mph70%30.36 "Hg10 mi
8:54 PM34 °FOvercast.8 mph70%30.35 "Hg10 mi
7:54 PM34 °FOvercast.8 mph73%30.35 "Hg10 mi
6:54 PM34 °FOvercast.5 mph79%30.35 "Hg10 mi
5:54 PM34 °FOvercast.7 mph79%30.33 "Hg10 mi
4:54 PM34 °FLight snow. Mostly cloudy.8 mph79%30.32 "Hg9 mi
3:54 PM34 °FLight snow. Overcast.9 mph82%30.31 "Hg7 mi
2:54 PM33 °FLight snow. Fog.8 mph85%30.31 "Hg6 mi
1:54 PM33 °FOvercast.8 mph78%30.30 "Hg10 mi
12:54 PM32 °FLight snow. Overcast.7 mph79%30.30 "Hg9 mi
11:54 AM32 °FLight snow. Overcast.7 mph75%30.31 "Hg9 mi
10:54 AM31 °FOvercast.7 mph79%30.33 "Hg9 mi
9:54 AM30 °FOvercast.9 mph82%30.34 "Hg10 mi
Weather by CustomWeather, © 2014

See weather overviewHow to use our weather pages